,,PressureMeas_1m,,PRMeasQMR101_1,,RHStat155_1m_1,,SRMeasQMS101R_1m,,TAStat155_1m_1,,GenWind_1,,GenWind_1,
2017-07-07, 07:00:06,VALID,918.091,VALID,0.0,VALID,96.955,VALID,39.023,VALID,19.751,VALID,10.0,VALID,0.536,
2017-07-07, 07:01:06,VALID,918.088,VALID,0.0,VALID,96.936,VALID,40.51,VALID,19.776,VALID,358.0,VALID,0.64,
2017-07-07, 07:02:06,VALID,918.091,VALID,0.0,VALID,96.815,VALID,41.649,VALID,19.783,VALID,7.0,VALID,0.72,
2017-07-07, 07:03:06,VALID,918.115,VALID,0.0,VALID,96.845,VALID,42.609,VALID,19.807,VALID,1.0,VALID,0.231,
2017-07-07, 07:04:06,VALID,918.132,VALID,0.0,VALID,96.766,VALID,43.187,VALID,19.825,VALID,337.0,VALID,0.384,
2017-07-07, 07:05:06,VALID,918.171,VALID,0.0,VALID,96.639,VALID,42.592,VALID,19.841,VALID,323.0,VALID,0.708,
2017-07-07, 07:06:06,VALID,918.2,VALID,0.0,VALID,96.523,VALID,40.985,VALID,19.863,VALID,304.0,VALID,0.261,
2017-07-07, 07:07:06,VALID,918.232,VALID,0.0,VALID,96.474,VALID,38.86,VALID,19.88,VALID,301.0,VALID,0.482,
2017-07-07, 07:08:06,VALID,918.268,VALID,0.0,VALID,96.535,VALID,36.748,VALID,19.849,VALID,270.0,VALID,0.323,
2017-07-07, 07:09:06,VALID,918.298,VALID,0.0,VALID,96.677,VALID,34.381,VALID,19.837,VALID,286.0,VALID,0.207,
2017-07-07, 07:10:06,VALID,918.316,VALID,0.0,VALID,96.622,VALID,33.563,VALID,19.811,VALID,284.0,VALID,0.143,
2017-07-07, 07:11:06,VALID,918.339,VALID,0.0,VALID,96.601,VALID,34.365,VALID,19.784,VALID,275.0,VALID,0.054,
2017-07-07, 07:12:06,VALID,918.351,VALID,0.0,VALID,96.748,VALID,35.565,VALID,19.78,VALID,270.0,VALID,0.0,
2017-07-07, 07:13:06,VALID,918.38,VALID,0.0,VALID,96.843,VALID,35.652,VALID,19.784,VALID,262.0,VALID,0.007,
2017-07-07, 07:14:06,VALID,918.402,VALID,0.0,VALID,96.92,VALID,35.508,VALID,19.791,VALID,261.0,VALID,0.092,
2017-07-07, 07:15:06,VALID,918.422,VALID,0.0,VALID,96.97,VALID,36.216,VALID,19.809,VALID,261.0,VALID,0.0,
2017-07-07, 07:16:06,VALID,918.445,VALID,0.0,VALID,96.857,VALID,37.993,VALID,19.804,VALID,259.0,VALID,0.0,
2017-07-07, 07:17:06,VALID,918.473,VALID,0.0,VALID,96.921,VALID,39.19,VALID,19.826,VALID,248.0,VALID,0.0,
2017-07-07, 07:18:06,VALID,918.5,VALID,0.0,VALID,96.812,VALID,37.62,VALID,19.828,VALID,248.0,VALID,0.19,
2017-07-07, 07:19:06,VALID,918.515,VALID,0.0,VALID,96.733,VALID,35.084,VALID,19.807,VALID,248.0,VALID,0.118,
2017-07-07, 07:20:06,VALID,918.535,VALID,0.0,VALID,96.812,VALID,34.739,VALID,19.8,VALID,245.0,VALID,0.301,
2017-07-07, 07:21:06,VALID,918.544,VALID,0.0,VALID,96.851,VALID,35.783,VALID,19.8,VALID,247.0,VALID,0.204,
2017-07-07, 07:22:06,VALID,918.556,VALID,0.0,VALID,96.883,VALID,33.806,VALID,19.799,VALID,263.0,VALID,0.0,
2017-07-07, 07:23:06,VALID,918.579,VALID,0.0,VALID,96.957,VALID,34.135,VALID,19.822,VALID,250.0,VALID,0.0,
2017-07-07, 07:24:06,VALID,918.602,VALID,0.0,VALID,96.961,VALID,38.169,VALID,19.854,VALID,248.0,VALID,0.017,
2017-07-07, 07:25:06,VALID,918.617,VALID,0.0,VALID,96.941,VALID,44.436,VALID,19.887,VALID,285.0,VALID,0.0,
2017-07-07, 07:26:06,VALID,918.635,VALID,0.0,VALID,96.911,VALID,51.492,VALID,19.912,VALID,285.0,VALID,0.0,
2017-07-07, 07:27:06,VALID,918.641,VALID,0.0,VALID,96.829,VALID,58.058,VALID,19.939,VALID,285.0,VALID,0.0,
2017-07-07, 07:28:06,VALID,918.657,VALID,0.0,VALID,96.767,VALID,65.074,VALID,19.982,VALID,291.0,VALID,0.0,
2017-07-07, 07:29:06,VALID,918.662,VALID,0.0,VALID,96.498,VALID,74.853,VALID,20.003,VALID,8.0,VALID,0.0,
2017-07-07, 07:30:06,VALID,918.68,VALID,0.0,VALID,96.19,VALID,81.667,VALID,20.009,VALID,17.0,VALID,0.137,
2017-07-07, 07:31:06,VALID,918.707,VALID,0.0,VALID,96.152,VALID,85.653,VALID,20.021,VALID,3.0,VALID,0.609,
2017-07-07, 07:32:06,VALID,918.747,VALID,0.0,VALID,95.96,VALID,88.467,VALID,20.073,VALID,4.0,VALID,0.489,
2017-07-07, 07:33:06,VALID,918.768,VALID,0.0,VALID,95.824,VALID,92.873,VALID,20.118,VALID,341.0,VALID,0.382,
2017-07-07, 07:34:06,VALID,918.788,VALID,0.0,VALID,95.636,VALID,96.448,VALID,20.181,VALID,335.0,VALID,0.036,
2017-07-07, 07:35:06,VALID,918.813,VALID,0.0,VALID,95.325,VALID,98.563,VALID,20.22,VALID,2.0,VALID,0.28,
2017-07-07, 07:36:06,VALID,918.83,VALID,0.0,VALID,94.931,VALID,99.773,VALID,20.246,VALID,3.0,VALID,0.005,
2017-07-07, 07:37:06,VALID,918.848,VALID,0.0,VALID,95.08,VALID,100.526,VALID,20.3,VALID,354.0,VALID,0.336,
2017-07-07, 07:38:06,VALID,918.871,VALID,0.0,VALID,95.294,VALID,101.425,VALID,20.355,VALID,339.0,VALID,0.025,
2017-07-07, 07:39:06,VALID,918.88,VALID,0.0,VALID,94.836,VALID,102.703,VALID,20.373,VALID,339.0,VALID,0.15,
2017-07-07, 07:40:06,VALID,918.875,VALID,0.0,VALID,94.585,VALID,104.028,VALID,20.399,VALID,343.0,VALID,0.084,
2017-07-07, 07:41:06,VALID,918.876,VALID,0.0,VALID,94.746,VALID,104.768,VALID,20.437,VALID,13.0,VALID,0.404,
2017-07-07, 07:42:06,VALID,918.875,VALID,0.0,VALID,94.925,VALID,106.0,VALID,20.494,VALID,6.0,VALID,0.35,
2017-07-07, 07:43:06,VALID,918.874,VALID,0.0,VALID,94.913,VALID,108.005,VALID,20.546,VALID,357.0,VALID,0.015,
2017-07-07, 07:44:06,VALID,918.886,VALID,0.0,VALID,94.408,VALID,110.882,VALID,20.576,VALID,340.0,VALID,0.0,
2017-07-07, 07:45:06,VALID,918.883,VALID,0.0,VALID,93.967,VALID,114.261,VALID,20.606,VALID,358.0,VALID,0.0,
2017-07-07, 07:46:06,VALID,918.899,VALID,0.0,VALID,94.111,VALID,117.614,VALID,20.641,VALID,9.0,VALID,0.0,
2017-07-07, 07:47:06,VALID,918.921,VALID,0.0,VALID,94.394,VALID,120.084,VALID,20.693,VALID,356.0,VALID,0.0,
2017-07-07, 07:48:06,VALID,918.944,VALID,0.0,VALID,94.33,VALID,122.459,VALID,20.722,VALID,350.0,VALID,0.0,
2017-07-07, 07:49:06,VALID,918.955,VALID,0.0,VALID,93.953,VALID,124.919,VALID,20.721,VALID,342.0,VALID,0.0,
2017-07-07, 07:50:06,VALID,918.979,VALID,0.0,VALID,93.718,VALID,126.505,VALID,20.715,VALID,355.0,VALID,0.0,
2017-07-07, 07:51:06,VALID,918.989,VALID,0.0,VALID,93.725,VALID,131.865,VALID,20.723,VALID,333.0,VALID,0.0,
2017-07-07, 07:52:06,VALID,918.995,VALID,0.0,VALID,93.561,VALID,136.286,VALID,20.737,VALID,353.0,VALID,0.393,
2017-07-07, 07:53:06,VALID,919.005,VALID,0.0,VALID,92.492,VALID,139.044,VALID,20.701,VALID,31.0,VALID,0.623,
2017-07-07, 07:54:06,VALID,919.018,VALID,0.0,VALID,92.775,VALID,141.657,VALID,20.682,VALID,38.0,VALID,0.723,
2017-07-07, 07:55:06,VALID,919.036,VALID,0.0,VALID,93.442,VALID,144.634,VALID,20.727,VALID,20.0,VALID,0.369,
2017-07-07, 07:56:06,VALID,919.04,VALID,0.0,VALID,93.725,VALID,147.837,VALID,20.791,VALID,15.0,VALID,0.149,
2017-07-07, 07:57:06,VALID,919.061,VALID,0.0,VALID,93.119,VALID,151.462,VALID,20.826,VALID,38.0,VALID,0.914,
2017-07-07, 07:58:06,VALID,919.072,VALID,0.0,VALID,91.994,VALID,154.914,VALID,20.788,VALID,33.0,VALID,0.818,
2017-07-07, 07:59:06,VALID,919.099,VALID,0.0,VALID,92.523,VALID,158.631,VALID,20.781,VALID,21.0,VALID,0.739,
2017-07-07, 08:00:06,VALID,919.106,VALID,0.0,VALID,92.786,VALID,161.583,VALID,20.776,VALID,14.0,VALID,0.945,
2017-07-07, 08:01:06,VALID,919.109,VALID,0.0,VALID,92.826,VALID,163.399,VALID,20.744,VALID,356.0,VALID,0.841,
2017-07-07, 08:02:06,VALID,919.127,VALID,0.0,VALID,92.767,VALID,164.565,VALID,20.758,VALID,356.0,VALID,0.871,
2017-07-07, 08:03:06,VALID,919.146,VALID,0.0,VALID,92.698,VALID,164.777,VALID,20.77,VALID,3.0,VALID,0.778,
2017-07-07, 08:04:06,VALID,919.176,VALID,0.0,VALID,92.784,VALID,163.94,VALID,20.808,VALID,358.0,VALID,0.473,
2017-07-07, 08:05:06,VALID,919.184,VALID,0.0,VALID,92.99,VALID,162.742,VALID,20.866,VALID,39.0,VALID,1.096,
2017-07-07, 08:06:06,VALID,919.197,VALID,0.0,VALID,92.445,VALID,161.991,VALID,20.904,VALID,18.0,VALID,1.098,
2017-07-07, 08:07:06,VALID,919.228,VALID,0.0,VALID,92.335,VALID,161.427,VALID,20.928,VALID,7.0,VALID,0.809,
2017-07-07, 08:08:06,VALID,919.245,VALID,0.0,VALID,92.69,VALID,160.684,VALID,20.94,VALID,30.0,VALID,0.766,
2017-07-07, 08:09:06,VALID,919.254,VALID,0.0,VALID,92.769,VALID,161.115,VALID,20.99,VALID,14.0,VALID,0.597,
2017-07-07, 08:10:06,VALID,919.256,VALID,0.0,VALID,92.442,VALID,162.581,VALID,21.044,VALID,353.0,VALID,0.371,
2017-07-07, 08:11:06,VALID,919.263,VALID,0.0,VALID,92.771,VALID,165.333,VALID,21.11,VALID,330.0,VALID,0.467,
2017-07-07, 08:12:06,VALID,919.256,VALID,0.0,VALID,91.722,VALID,169.422,VALID,21.12,VALID,303.0,VALID,0.123,
2017-07-07, 08:13:06,VALID,919.246,VALID,0.0,VALID,91.276,VALID,172.9,VALID,21.136,VALID,232.0,VALID,0.03,
2017-07-07, 08:14:06,VALID,919.257,VALID,0.0,VALID,91.188,VALID,175.626,VALID,21.178,VALID,300.0,VALID,0.021,
2017-07-07, 08:15:06,VALID,919.232,VALID,0.0,VALID,90.253,VALID,178.313,VALID,21.203,VALID,360.0,VALID,0.0,
2017-07-07, 08:16:06,VALID,919.254,VALID,0.0,VALID,90.216,VALID,182.152,VALID,21.227,VALID,20.0,VALID,0.0,
2017-07-07, 08:17:06,VALID,919.23,VALID,0.0,VALID,90.402,VALID,185.085,VALID,21.281,VALID,22.0,VALID,0.083,
2017-07-07, 08:18:06,VALID,919.231,VALID,0.0,VALID,90.7,VALID,188.298,VALID,21.307,VALID,56.0,VALID,0.498,
2017-07-07, 08:19:06,VALID,919.237,VALID,0.0,VALID,90.5,VALID,187.1,VALID,21.366,VALID,46.0,VALID,0.729,
2017-07-07, 08:20:06,VALID,919.223,VALID,0.0,VALID,90.011,VALID,184.691,VALID,21.42,VALID,319.0,VALID,0.577,
2017-07-07, 08:21:06,VALID,919.213,VALID,0.0,VALID,89.888,VALID,180.573,VALID,21.354,VALID,301.0,VALID,0.373,
2017-07-07, 08:22:06,VALID,919.214,VALID,0.0,VALID,90.283,VALID,181.667,VALID,21.304,VALID,355.0,VALID,0.545,
2017-07-07, 08:23:06,VALID,919.216,VALID,0.0,VALID,91.431,VALID,183.574,VALID,21.316,VALID,353.0,VALID,0.161,
2017-07-07, 08:24:06,VALID,919.21,VALID,0.0,VALID,91.711,VALID,182.334,VALID,21.344,VALID,312.0,VALID,0.058,
2017-07-07, 08:25:06,VALID,919.223,VALID,0.0,VALID,91.027,VALID,177.696,VALID,21.341,VALID,288.0,VALID,0.21,
2017-07-07, 08:26:06,VALID,919.229,VALID,0.0,VALID,90.142,VALID,170.06,VALID,21.301,VALID,325.0,VALID,0.414,
2017-07-07, 08:27:06,VALID,919.242,VALID,0.0,VALID,90.23,VALID,164.046,VALID,21.286,VALID,319.0,VALID,0.082,
2017-07-07, 08:28:06,VALID,919.24,VALID,0.0,VALID,90.416,VALID,162.53,VALID,21.317,VALID,14.0,VALID,0.399,
2017-07-07, 08:29:06,VALID,919.251,VALID,0.0,VALID,90.062,VALID,158.835,VALID,21.32,VALID,360.0,VALID,0.854,
2017-07-07, 08:30:06,VALID,919.241,VALID,0.0,VALID,89.746,VALID,154.479,VALID,21.248,VALID,36.0,VALID,1.388,
2017-07-07, 08:31:06,VALID,919.253,VALID,0.0,VALID,91.308,VALID,149.001,VALID,21.222,VALID,19.0,VALID,1.426,
2017-07-07, 08:32:06,VALID,919.258,VALID,0.0,VALID,92.112,VALID,142.233,VALID,21.301,VALID,8.0,VALID,0.387,
2017-07-07, 08:33:06,VALID,919.286,VALID,0.0,VALID,90.932,VALID,138.967,VALID,21.335,VALID,26.0,VALID,0.491,
2017-07-07, 08:34:06,VALID,919.302,VALID,0.0,VALID,90.369,VALID,140.144,VALID,21.372,VALID,12.0,VALID,0.243,
2017-07-07, 08:35:06,VALID,919.331,VALID,0.0,VALID,90.314,VALID,141.696,VALID,21.422,VALID,359.0,VALID,0.0,
2017-07-07, 08:36:06,VALID,919.342,VALID,0.0,VALID,90.761,VALID,140.643,VALID,21.448,VALID,273.0,VALID,0.0,
2017-07-07, 08:37:06,VALID,919.357,VALID,0.0,VALID,90.732,VALID,139.865,VALID,21.435,VALID,301.0,VALID,0.35,
2017-07-07, 08:38:06,VALID,919.374,VALID,0.0,VALID,89.894,VALID,142.378,VALID,21.369,VALID,264.0,VALID,0.191,
2017-07-07, 08:39:06,VALID,919.394,VALID,0.0,VALID,90.214,VALID,145.374,VALID,21.307,VALID,255.0,VALID,0.064,
2017-07-07, 08:40:06,VALID,919.406,VALID,0.0,VALID,90.419,VALID,145.459,VALID,21.306,VALID,250.0,VALID,0.273,
2017-07-07, 08:41:06,VALID,919.401,VALID,0.0,VALID,91.416,VALID,146.473,VALID,21.346,VALID,293.0,VALID,0.11,
2017-07-07, 08:42:06,VALID,919.405,VALID,0.0,VALID,91.408,VALID,149.105,VALID,21.43,VALID,37.0,VALID,0.499,
2017-07-07, 08:43:06,VALID,919.41,VALID,0.0,VALID,90.432,VALID,152.763,VALID,21.531,VALID,30.0,VALID,0.447,
2017-07-07, 08:44:06,VALID,919.415,VALID,0.0,VALID,89.935,VALID,155.226,VALID,21.6,VALID,331.0,VALID,0.063,
2017-07-07, 08:45:06,VALID,919.409,VALID,0.0,VALID,90.277,VALID,155.018,VALID,21.658,VALID,15.0,VALID,0.489,
2017-07-07, 08:46:06,VALID,919.411,VALID,0.0,VALID,89.322,VALID,154.419,VALID,21.679,VALID,360.0,VALID,0.143,
2017-07-07, 08:47:06,VALID,919.414,VALID,0.0,VALID,89.883,VALID,158.12,VALID,21.685,VALID,322.0,VALID,0.016,
2017-07-07, 08:48:06,VALID,919.417,VALID,0.0,VALID,90.563,VALID,169.302,VALID,21.694,VALID,285.0,VALID,0.0,
2017-07-07, 08:49:06,VALID,919.422,VALID,0.0,VALID,90.241,VALID,186.158,VALID,21.729,VALID,118.0,VALID,0.02,
2017-07-07, 08:50:06,VALID,919.434,VALID,0.0,VALID,89.613,VALID,207.407,VALID,21.755,VALID,356.0,VALID,0.0,
2017-07-07, 08:51:06,VALID,919.442,VALID,0.0,VALID,89.374,VALID,223.267,VALID,21.782,VALID,356.0,VALID,0.0,
2017-07-07, 08:52:06,VALID,919.442,VALID,0.0,VALID,88.973,VALID,231.119,VALID,21.85,VALID,294.0,VALID,0.0,
2017-07-07, 08:53:06,VALID,919.457,VALID,0.0,VALID,88.851,VALID,225.715,VALID,21.888,VALID,248.0,VALID,0.0,
2017-07-07, 08:54:06,VALID,919.474,VALID,0.0,VALID,89.074,VALID,208.083,VALID,21.954,VALID,249.0,VALID,0.0,
2017-07-07, 08:55:06,VALID,919.489,VALID,0.0,VALID,88.385,VALID,188.939,VALID,22.019,VALID,325.0,VALID,0.053,
2017-07-07, 08:56:06,VALID,919.494,VALID,0.0,VALID,88.136,VALID,177.986,VALID,21.979,VALID,344.0,VALID,0.393,
2017-07-07, 08:57:06,VALID,919.506,VALID,0.0,VALID,88.659,VALID,173.322,VALID,21.901,VALID,2.0,VALID,0.215,
2017-07-07, 08:58:06,VALID,919.506,VALID,0.0,VALID,89.366,VALID,178.834,VALID,21.881,VALID,347.0,VALID,0.207,
2017-07-07, 08:59:06,VALID,919.522,VALID,0.0,VALID,89.619,VALID,193.997,VALID,21.911,VALID,349.0,VALID,0.044,
2017-07-07, 09:00:06,VALID,919.525,VALID,0.0,VALID,89.022,VALID,209.462,VALID,21.886,VALID,266.0,VALID,0.314,
2017-07-07, 09:01:06,VALID,919.538,VALID,0.0,VALID,88.87,VALID,218.708,VALID,21.879,VALID,242.0,VALID,0.261,
2017-07-07, 09:02:06,VALID,919.531,VALID,0.0,VALID,89.054,VALID,224.422,VALID,21.873,VALID,316.0,VALID,0.288,
2017-07-07, 09:03:06,VALID,919.532,VALID,0.0,VALID,87.716,VALID,228.743,VALID,21.836,VALID,286.0,VALID,0.086,
2017-07-07, 09:04:06,VALID,919.529,VALID,0.0,VALID,88.232,VALID,225.807,VALID,21.866,VALID,332.0,VALID,0.268,
2017-07-07, 09:05:06,VALID,919.526,VALID,0.0,VALID,88.602,VALID,224.236,VALID,21.912,VALID,283.0,VALID,0.228,
2017-07-07, 09:06:06,VALID,919.519,VALID,0.0,VALID,86.93,VALID,221.479,VALID,21.836,VALID,299.0,VALID,0.908,
2017-07-07, 09:07:06,VALID,919.521,VALID,0.0,VALID,87.884,VALID,221.787,VALID,21.65,VALID,297.0,VALID,0.387,
2017-07-07, 09:08:06,VALID,919.514,VALID,0.0,VALID,89.107,VALID,226.121,VALID,21.586,VALID,325.0,VALID,0.286,
2017-07-07, 09:09:06,VALID,919.5,VALID,0.0,VALID,89.243,VALID,235.253,VALID,21.641,VALID,7.0,VALID,0.556,
2017-07-07, 09:10:06,VALID,919.491,VALID,0.0,VALID,88.369,VALID,248.562,VALID,21.775,VALID,329.0,VALID,0.185,
2017-07-07, 09:11:06,VALID,919.483,VALID,0.0,VALID,88.468,VALID,266.054,VALID,21.903,VALID,10.0,VALID,0.557,
2017-07-07, 09:12:06,VALID,919.469,VALID,0.0,VALID,88.04,VALID,284.471,VALID,21.915,VALID,323.0,VALID,0.046,
2017-07-07, 09:13:06,VALID,919.458,VALID,0.0,VALID,87.459,VALID,301.726,VALID,21.958,VALID,302.0,VALID,0.021,
2017-07-07, 09:14:06,VALID,919.442,VALID,0.0,VALID,87.712,VALID,309.284,VALID,22.113,VALID,4.0,VALID,0.061,
2017-07-07, 09:15:06,VALID,919.449,VALID,0.0,VALID,87.288,VALID,312.408,VALID,22.273,VALID,305.0,VALID,0.016,
2017-07-07, 09:16:06,VALID,919.454,VALID,0.0,VALID,86.374,VALID,315.907,VALID,22.419,VALID,282.0,VALID,0.016,
2017-07-07, 09:17:06,VALID,919.46,VALID,0.0,VALID,85.245,VALID,320.347,VALID,22.527,VALID,292.0,VALID,0.473,
2017-07-07, 09:18:06,VALID,919.456,VALID,0.0,VALID,84.279,VALID,339.165,VALID,22.401,VALID,301.0,VALID,0.15,
2017-07-07, 09:19:06,VALID,919.486,VALID,0.0,VALID,85.682,VALID,361.989,VALID,22.357,VALID,325.0,VALID,0.375,
2017-07-07, 09:20:06,VALID,919.483,VALID,0.0,VALID,85.759,VALID,379.331,VALID,22.334,VALID,11.0,VALID,0.231,
2017-07-07, 09:21:06,VALID,919.489,VALID,0.0,VALID,85.646,VALID,385.493,VALID,22.403,VALID,45.0,VALID,0.04,
2017-07-07, 09:22:06,VALID,919.489,VALID,0.0,VALID,85.958,VALID,383.629,VALID,22.569,VALID,66.0,VALID,0.041,
2017-07-07, 09:23:06,VALID,919.486,VALID,0.0,VALID,86.219,VALID,373.415,VALID,22.768,VALID,64.0,VALID,0.515,
2017-07-07, 09:24:06,VALID,919.493,VALID,0.0,VALID,84.797,VALID,346.048,VALID,22.942,VALID,299.0,VALID,0.447,
2017-07-07, 09:25:06,VALID,919.48,VALID,0.0,VALID,83.626,VALID,305.937,VALID,22.832,VALID,3.0,VALID,0.688,
2017-07-07, 09:26:06,VALID,919.474,VALID,0.0,VALID,84.965,VALID,284.927,VALID,22.729,VALID,45.0,VALID,0.297,
2017-07-07, 09:27:06,VALID,919.478,VALID,0.0,VALID,84.756,VALID,284.468,VALID,22.754,VALID,325.0,VALID,0.287,
2017-07-07, 09:28:06,VALID,919.474,VALID,0.0,VALID,85.19,VALID,289.957,VALID,22.806,VALID,95.0,VALID,0.314,
2017-07-07, 09:29:06,VALID,919.47,VALID,0.0,VALID,84.345,VALID,311.178,VALID,22.812,VALID,255.0,VALID,0.159,
2017-07-07, 09:30:06,VALID,919.46,VALID,0.0,VALID,84.431,VALID,343.587,VALID,22.845,VALID,20.0,VALID,0.243,
2017-07-07, 09:31:06,VALID,919.45,VALID,0.0,VALID,84.211,VALID,386.427,VALID,22.924,VALID,328.0,VALID,0.392,
2017-07-07, 09:32:06,VALID,919.435,VALID,0.0,VALID,84.951,VALID,414.191,VALID,22.952,VALID,15.0,VALID,0.452,
2017-07-07, 09:33:06,VALID,919.431,VALID,0.0,VALID,83.944,VALID,407.911,VALID,23.059,VALID,301.0,VALID,0.068,
2017-07-07, 09:34:06,VALID,919.436,VALID,0.0,VALID,82.8,VALID,402.682,VALID,23.183,VALID,287.0,VALID,0.293,
2017-07-07, 09:35:06,VALID,919.427,VALID,0.0,VALID,82.8,VALID,405.516,VALID,23.124,VALID,344.0,VALID,0.548,
2017-07-07, 09:36:06,VALID,919.414,VALID,0.0,VALID,82.825,VALID,416.772,VALID,23.096,VALID,4.0,VALID,1.006,
2017-07-07, 09:37:06,VALID,919.428,VALID,0.0,VALID,82.125,VALID,418.282,VALID,23.087,VALID,356.0,VALID,0.996,
2017-07-07, 09:38:06,VALID,919.436,VALID,0.0,VALID,82.231,VALID,409.477,VALID,23.02,VALID,23.0,VALID,1.12,
2017-07-07, 09:39:06,VALID,919.448,VALID,0.0,VALID,83.392,VALID,394.41,VALID,23.098,VALID,19.0,VALID,0.957,
2017-07-07, 09:40:06,VALID,919.428,VALID,0.0,VALID,82.123,VALID,394.127,VALID,23.138,VALID,15.0,VALID,1.302,
2017-07-07, 09:41:06,VALID,919.435,VALID,0.0,VALID,81.701,VALID,392.266,VALID,23.085,VALID,358.0,VALID,1.073,
2017-07-07, 09:42:06,VALID,919.454,VALID,0.0,VALID,83.027,VALID,377.251,VALID,22.997,VALID,4.0,VALID,1.468,
2017-07-07, 09:43:06,VALID,919.462,VALID,0.0,VALID,82.181,VALID,347.001,VALID,22.941,VALID,353.0,VALID,1.113,
2017-07-07, 09:44:06,VALID,919.472,VALID,0.0,VALID,81.911,VALID,331.063,VALID,22.822,VALID,309.0,VALID,0.536,
2017-07-07, 09:45:06,VALID,919.456,VALID,0.0,VALID,82.674,VALID,335.551,VALID,22.687,VALID,265.0,VALID,0.769,
2017-07-07, 09:46:06,VALID,919.466,VALID,0.0,VALID,84.268,VALID,342.061,VALID,22.621,VALID,335.0,VALID,0.869,
2017-07-07, 09:47:06,VALID,919.461,VALID,0.0,VALID,85.616,VALID,339.22,VALID,22.684,VALID,18.0,VALID,1.002,
2017-07-07, 09:48:06,VALID,919.452,VALID,0.0,VALID,84.242,VALID,330.601,VALID,22.809,VALID,62.0,VALID,0.117,
2017-07-07, 09:49:06,VALID,919.451,VALID,0.0,VALID,82.846,VALID,315.312,VALID,22.92,VALID,40.0,VALID,0.4,
2017-07-07, 09:50:06,VALID,919.44,VALID,0.0,VALID,83.672,VALID,295.34,VALID,22.961,VALID,346.0,VALID,0.662,
2017-07-07, 09:51:06,VALID,919.427,VALID,0.0,VALID,83.398,VALID,293.907,VALID,23.035,VALID,297.0,VALID,0.207,
2017-07-07, 09:52:06,VALID,919.412,VALID,0.0,VALID,82.71,VALID,310.536,VALID,23.066,VALID,49.0,VALID,0.079,
2017-07-07, 09:53:06,VALID,919.408,VALID,0.0,VALID,82.773,VALID,341.517,VALID,23.165,VALID,27.0,VALID,0.493,
2017-07-07, 09:54:06,VALID,919.388,VALID,0.0,VALID,83.136,VALID,355.195,VALID,23.255,VALID,15.0,VALID,0.844,
2017-07-07, 09:55:06,VALID,919.387,VALID,0.0,VALID,83.678,VALID,362.626,VALID,23.339,VALID,33.0,VALID,0.424,
2017-07-07, 09:56:06,VALID,919.387,VALID,0.0,VALID,82.863,VALID,356.244,VALID,23.458,VALID,29.0,VALID,0.28,
2017-07-07, 09:57:06,VALID,919.392,VALID,0.0,VALID,81.9,VALID,350.956,VALID,23.635,VALID,334.0,VALID,0.465,
2017-07-07, 09:58:06,VALID,919.379,VALID,0.0,VALID,80.583,VALID,356.111,VALID,23.654,VALID,352.0,VALID,0.628,
2017-07-07, 09:59:06,VALID,919.378,VALID,0.0,VALID,81.104,VALID,358.669,VALID,23.452,VALID,12.0,VALID,0.896,
2017-07-07, 10:00:06,VALID,919.387,VALID,0.0,VALID,81.893,VALID,348.519,VALID,23.281,VALID,2.0,VALID,1.596,
2017-07-07, 10:01:06,VALID,919.402,VALID,0.0,VALID,82.421,VALID,333.537,VALID,23.1,VALID,17.0,VALID,1.565,
2017-07-07, 10:02:06,VALID,919.418,VALID,0.0,VALID,83.635,VALID,327.858,VALID,23.062,VALID,31.0,VALID,0.869,
2017-07-07, 10:03:06,VALID,919.422,VALID,0.0,VALID,83.918,VALID,333.354,VALID,23.04,VALID,14.0,VALID,1.395,
2017-07-07, 10:04:06,VALID,919.445,VALID,0.0,VALID,84.459,VALID,334.58,VALID,23.066,VALID,335.0,VALID,0.448,
2017-07-07, 10:05:06,VALID,919.44,VALID,0.0,VALID,83.245,VALID,328.564,VALID,23.092,VALID,40.0,VALID,0.257,
2017-07-07, 10:06:06,VALID,919.463,VALID,0.0,VALID,82.994,VALID,332.458,VALID,23.139,VALID,17.0,VALID,0.149,
2017-07-07, 10:07:06,VALID,919.461,VALID,0.0,VALID,83.496,VALID,340.755,VALID,23.271,VALID,13.0,VALID,0.013,
2017-07-07, 10:08:06,VALID,919.457,VALID,0.0,VALID,83.002,VALID,349.99,VALID,23.503,VALID,30.0,VALID,0.253,
2017-07-07, 10:09:06,VALID,919.45,VALID,0.0,VALID,81.216,VALID,355.344,VALID,23.577,VALID,32.0,VALID,0.45,
2017-07-07, 10:10:06,VALID,919.458,VALID,0.0,VALID,81.014,VALID,363.083,VALID,23.59,VALID,284.0,VALID,0.503,
2017-07-07, 10:11:06,VALID,919.452,VALID,0.0,VALID,82.203,VALID,350.452,VALID,23.555,VALID,352.0,VALID,0.302,
2017-07-07, 10:12:06,VALID,919.426,VALID,0.0,VALID,80.948,VALID,339.144,VALID,23.48,VALID,338.0,VALID,0.536,
2017-07-07, 10:13:06,VALID,919.411,VALID,0.0,VALID,80.54,VALID,331.821,VALID,23.334,VALID,41.0,VALID,0.552,
2017-07-07, 10:14:06,VALID,919.405,VALID,0.0,VALID,82.819,VALID,324.533,VALID,23.273,VALID,1.0,VALID,1.003,
2017-07-07, 10:15:06,VALID,919.398,VALID,0.0,VALID,83.128,VALID,325.72,VALID,23.339,VALID,17.0,VALID,0.798,
2017-07-07, 10:16:06,VALID,919.375,VALID,0.0,VALID,82.337,VALID,347.615,VALID,23.391,VALID,18.0,VALID,0.365,
2017-07-07, 10:17:06,VALID,919.364,VALID,0.0,VALID,82.577,VALID,388.523,VALID,23.445,VALID,10.0,VALID,1.316,
2017-07-07, 10:18:06,VALID,919.352,VALID,0.0,VALID,81.377,VALID,436.242,VALID,23.289,VALID,5.0,VALID,1.229,
2017-07-07, 10:19:06,VALID,919.341,VALID,0.0,VALID,82.899,VALID,438.625,VALID,23.216,VALID,354.0,VALID,0.452,
2017-07-07, 10:20:06,VALID,919.321,VALID,0.0,VALID,83.071,VALID,424.331,VALID,23.262,VALID,13.0,VALID,0.689,
2017-07-07, 10:21:06,VALID,919.3,VALID,0.0,VALID,83.123,VALID,436.983,VALID,23.414,VALID,2.0,VALID,0.899,
2017-07-07, 10:22:06,VALID,919.284,VALID,0.0,VALID,80.958,VALID,481.968,VALID,23.586,VALID,360.0,VALID,0.484,
2017-07-07, 10:23:06,VALID,919.276,VALID,0.0,VALID,80.656,VALID,518.341,VALID,23.644,VALID,23.0,VALID,0.61,
2017-07-07, 10:24:06,VALID,919.257,VALID,0.0,VALID,80.727,VALID,538.259,VALID,23.779,VALID,313.0,VALID,0.629,
2017-07-07, 10:25:06,VALID,919.235,VALID,0.0,VALID,80.324,VALID,544.625,VALID,23.788,VALID,4.0,VALID,1.218,
2017-07-07, 10:26:06,VALID,919.245,VALID,0.0,VALID,80.933,VALID,552.552,VALID,23.799,VALID,323.0,VALID,0.884,
2017-07-07, 10:27:06,VALID,919.24,VALID,0.0,VALID,79.48,VALID,533.322,VALID,23.777,VALID,268.0,VALID,0.499,
2017-07-07, 10:28:06,VALID,919.234,VALID,0.0,VALID,79.822,VALID,446.346,VALID,23.703,VALID,353.0,VALID,0.379,
2017-07-07, 10:29:06,VALID,919.251,VALID,0.0,VALID,81.219,VALID,388.472,VALID,23.872,VALID,316.0,VALID,0.312,
2017-07-07, 10:30:06,VALID,919.252,VALID,0.0,VALID,78.883,VALID,397.0,VALID,23.976,VALID,284.0,VALID,0.489,
2017-07-07, 10:31:06,VALID,919.233,VALID,0.0,VALID,78.9,VALID,442.077,VALID,23.839,VALID,338.0,VALID,0.881,
2017-07-07, 10:32:06,VALID,919.226,VALID,0.0,VALID,79.951,VALID,450.543,VALID,23.827,VALID,228.0,VALID,0.217,
2017-07-07, 10:33:06,VALID,919.221,VALID,0.0,VALID,80.134,VALID,412.04,VALID,23.943,VALID,358.0,VALID,0.536,
2017-07-07, 10:34:06,VALID,919.198,VALID,0.0,VALID,79.653,VALID,396.536,VALID,24.058,VALID,297.0,VALID,0.197,
2017-07-07, 10:35:06,VALID,919.198,VALID,0.0,VALID,79.931,VALID,417.142,VALID,24.189,VALID,298.0,VALID,0.573,
2017-07-07, 10:36:06,VALID,919.183,VALID,0.0,VALID,79.418,VALID,454.511,VALID,24.261,VALID,360.0,VALID,0.174,
2017-07-07, 10:37:06,VALID,919.177,VALID,0.0,VALID,78.429,VALID,488.388,VALID,24.378,VALID,346.0,VALID,0.557,